Change the Weather History Date:

Friday, September 13, 2013

  Actual Average (PAGA) Record (PAGA)
Temperature  
Mean Temperature 40 °F -  
Max Temperature 51 °F 53 °F 71 °F (2010)
Min Temperature 30 °F 40 °F 21 °F (1996)
Degree Days  
Heating Degree Days 25    
Moisture  
Dew Point 36 °F    
Average Humidity 89    
Maximum Humidity 100    
Minimum Humidity 66    
Precipitation  
Precipitation 0.00 in - - ()
Sea Level Pressure  
Sea Level Pressure 29.91 in    
Wind  
Wind Speed 1 mph (SW)    
Max Wind Speed 12 mph    
Max Gust Speed -    
Visibility 7 miles    
Events Rain    
Averages and records for this station are not official NWS values.
T = Trace of Precipitation, MM = Missing Value Source: NWS Daily Summary

Daily Weather History Graph

Daily Weather History Graph

Search for Another Location

Airport or City:

Trip Planner

Search our weather history database for the weather conditions in past years. The results will help you decide how hot, cold, wet, or windy it might be!

Date:

Astronomy

Sep. 13, 2013 Rise Set
Actual Time 7:53 AM AKDT 9:06 PM AKDT
Civil Twilight 7:03 AM AKDT 9:55 PM AKDT
Nautical Twilight 6:00 AM AKDT 10:58 PM AKDT
Astronomical Twilight 4:39 AM AKDT 12:16 AM AKDT
Moon 6:42 PM AKDT (9/13) No Moon Set
Length of Visible Light 14h 52m
Length of Day
13h 13m
Waxing Gibbous, 63% of the Moon is Illuminated
Sep 13
Waxing Gibbous
Sep 19
Full
Sep 26
Last Quarter
Oct 4
New
Oct 11
First Quarter

Hourly Weather History & Observations

Time (AKDT) Temp. Windchill Dew Point Humidity Pressure Visibility Wind Dir Wind Speed Gust Speed Precip Events Conditions
12:05 AM 42.8 °F - 41.0 °F 93% 29.83 in 2.0 mi Calm Calm - N/A   Mostly Cloudy
12:13 AM 42.8 °F - 41.0 °F 93% 29.83 in 10.0 mi Calm Calm - N/A   Overcast
12:53 AM 39.9 °F 37.8 °F 39.0 °F 97% 29.85 in 10.0 mi SW 3.5 mph - N/A   Clear
1:14 AM 37.4 °F - 37.4 °F 100% 29.84 in 1.8 mi Calm Calm - N/A   Clear
1:22 AM 39.2 °F 37.0 °F 37.4 °F 93% 29.85 in 2.0 mi SSW 3.5 mph - N/A   Partly Cloudy
1:30 AM 41.0 °F 39.0 °F 39.2 °F 93% 29.85 in 10.0 mi SSW 3.5 mph - N/A   Clear
1:48 AM 37.4 °F - 37.4 °F 100% 29.85 in 1.8 mi Calm Calm - N/A   Partly Cloudy
1:53 AM 37.0 °F - 36.0 °F 96% 29.87 in 2.5 mi Calm Calm - N/A   Partly Cloudy
2:02 AM 37.4 °F - 35.6 °F 93% 29.86 in 4.0 mi Calm Calm - N/A   Partly Cloudy
2:53 AM 35.1 °F - 33.1 °F 92% 29.88 in 8.0 mi Calm Calm - N/A   Clear
3:02 AM 33.8 °F - 33.8 °F 100% 29.87 in 6.0 mi Calm Calm - N/A   Scattered Clouds
3:09 AM 33.8 °F - 33.8 °F 100% 29.88 in 2.5 mi Calm Calm - N/A   Mostly Cloudy
3:16 AM 35.6 °F - 33.8 °F 93% 29.88 in 0.8 mi Calm Calm - N/A   Mist
3:37 AM 33.8 °F - 32.0 °F 93% 29.89 in 2.0 mi Calm Calm - N/A   Mostly Cloudy
3:40 AM 33.8 °F - 32.0 °F 93% 29.89 in 6.0 mi Calm Calm - N/A   Mostly Cloudy
3:53 AM 34.0 °F - 33.1 °F 96% 29.90 in 10.0 mi Calm Calm - N/A   Mostly Cloudy
4:53 AM 32.0 °F - 32.0 °F 100% 29.91 in 10.0 mi Calm Calm - N/A   Clear
5:53 AM 33.1 °F - 32.0 °F 96% 29.91 in 10.0 mi Calm Calm - N/A   Clear
6:53 AM 32.0 °F 28.7 °F 30.0 °F 92% 29.91 in 10.0 mi SW 3.5 mph - N/A   Clear
7:28 AM 30.2 °F - 30.2 °F 100% 29.91 in 10.0 mi Calm Calm - N/A   Scattered Clouds
7:37 AM 33.8 °F 29.6 °F 30.2 °F 87% 29.91 in 8.0 mi SW 4.6 mph - 0.00 in   Mostly Cloudy
7:53 AM 33.1 °F - 32.0 °F 96% 29.92 in 9.0 mi Calm Calm - 0.00 in   Mostly Cloudy
8:09 AM 33.8 °F - 32.0 °F 93% 29.91 in 10.0 mi Calm Calm - N/A   Scattered Clouds
8:14 AM 32.0 °F - 30.2 °F 93% 29.91 in 1.8 mi Calm Calm - N/A   Scattered Clouds
8:21 AM 33.8 °F - 32.0 °F 93% 29.91 in 0.8 mi Calm Calm - N/A   Mist
8:34 AM 33.8 °F - 30.2 °F 87% 29.91 in 1.2 mi Calm Calm - N/A   Partly Cloudy
8:36 AM 33.8 °F - 32.0 °F 93% 29.91 in 4.0 mi Calm Calm - N/A   Partly Cloudy
8:53 AM 34.0 °F 31.0 °F 32.0 °F 92% 29.92 in 10.0 mi SSW 3.5 mph - N/A   Clear
9:53 AM 37.0 °F - 36.0 °F 96% 29.93 in 10.0 mi Calm Calm - 0.00 in Rain Light Rain
10:07 AM 37.4 °F - 35.6 °F 93% 29.92 in 4.0 mi Calm Calm - 0.00 in   Scattered Clouds
10:53 AM 41.0 °F - 37.9 °F 89% 29.93 in 10.0 mi Calm Calm - 0.00 in   Clear
11:53 AM 46.9 °F - 43.0 °F 86% 29.93 in 10.0 mi Calm Calm - 0.00 in   Partly Cloudy
12:53 PM 48.9 °F - 42.1 °F 77% 29.94 in 10.0 mi SSW 5.8 mph - N/A   Mostly Cloudy
1:53 PM 48.9 °F - 42.1 °F 77% 29.94 in 10.0 mi SW 5.8 mph - N/A   Overcast
2:53 PM 50.0 °F - 39.0 °F 66% 29.94 in 10.0 mi SW 11.5 mph - N/A   Overcast
3:53 PM 50.0 °F - 39.9 °F 68% 29.95 in 10.0 mi WSW 11.5 mph - N/A   Overcast
4:53 PM 50.0 °F - 41.0 °F 71% 29.96 in 10.0 mi SW 4.6 mph - N/A   Overcast
5:53 PM 48.9 °F - 39.0 °F 69% 29.97 in 10.0 mi Variable 3.5 mph - N/A   Overcast
6:53 PM 48.9 °F - 39.9 °F 71% 29.98 in 10.0 mi Calm Calm - N/A   Overcast
7:53 PM 48.0 °F - 41.0 °F 77% 29.99 in 10.0 mi WSW 3.5 mph - N/A   Overcast
8:53 PM 46.9 °F - 41.0 °F 80% 30.00 in 10.0 mi WSW 3.5 mph - N/A   Overcast
9:53 PM 46.0 °F 44.8 °F 39.9 °F 79% 30.01 in 10.0 mi SW 3.5 mph - N/A   Overcast
10:53 PM 45.0 °F 43.5 °F 39.9 °F 82% 30.02 in 10.0 mi WSW 3.5 mph - N/A   Overcast
11:53 PM 44.1 °F - 39.9 °F 85% 30.03 in 10.0 mi Calm Calm - N/A   Overcast